{"data":{"norad_id":53998,"intl_designator":"2022-125AL","name":"STARLINK-5128","alt_names":[],"object_type":"PAYLOAD","status":"ACTIVE","operator":null,"country":"US","launch_date":"2022-10-05","launch_site_code":"AFWTR","launch_vehicle":null,"mission":null,"orbit_class":"UNKNOWN","rcs_meters":null,"size_class":null,"mass_kg":null,"dimensions":null,"purposes":["comms"],"wikipedia_slug":null,"has_3d_model":false,"image_url":null,"decayed_at":null,"tle_current":{"epoch":"2026-09-20T22:00:03.000096Z","epoch_age_seconds":50558,"freshness":"FRESH","line1":"1 53998U 22125AL  26263.91670139  .00076493  00000+0  30246-2 0  9996","line2":"2 53998  53.1611  56.1587 0002063  71.2298  82.8294 15.24814692  5757","mean_motion":15.24814692,"eccentricity":0.0002063,"inclination_deg":53.1611,"raan_deg":56.1587,"arg_perigee_deg":71.2298,"mean_anomaly_deg":82.8294,"bstar":0.0030246,"rev_number":575,"period_min":94.43770495884,"perigee_km":489.92476088182,"apogee_km":492.75910789014,"semimajor_km":6869.478934386,"source":"CELESTRAK","updated_at":"2026-09-21T09:00:33.071828Z"}}}